Zurück zum Katalog

METEOR 2-8 DEB

AktivPO
NORAD 36330·DEBRIS·🇷🇺 Russia

Gestartet Mar 25, 1982 von Plesetsk Cosmodrome

Loading…

Nächste Überflüge (nächste 24 Stunden)

TLE

VeraltetSource: Space-Track

Epoche: Sep 2, 2026, 23:16 UTC

1 36330U 82025Q   26245.96947894  .00002443  00000-0  87878-3 0  9991
2 36330  82.5350 125.4912 0026532  60.9783 299.4058 14.33276554725141

Verfolge METEOR 2-8 DEB in Echtzeit mit AllMySat

Download on the App Store